Location: Le Rouget
(44.8538°N, 2.2328°E)
Time: 19:48:33
(UTC+00:00)

SPOT 3 Rocket - Pass Details

Date: 15 May 2026
Orbit: 774 x 790 km, 98.5° (Epoch: 6 June)

Event Time Altitude Azimuth Distance (km) Brightness Sun altitude
Exits shadow 21:09:24 26° 160° (SSE) 1,488 4.4 -16.7°
Maximum altitude 21:12:22 84° 75° (ENE) 788 3.5 -17.0°
Drops below altitude 10° 21:17:31 10° 348° (NNW) 2,333 7.0 -17.6°
Sets 21:19:50 0° 347° (NNW) 3,264 8.0 -17.8°
